Content
SEND FEEDBACK

Daily
Averages
Monthly
Summary
United States of America

ACHANG BAY, GUAM


Home > North America > United States > Guam
Elevation: 10 meters     Latitude: 13 16N     Longitude: 144 45E

WEATHER
 
SELECT A DAY
Number of Records: 342,166;   Date Range: 1/1/95 - 8/12/14
 
SHARE

PRINT THIS DATA

[ ← Previous Day ]
WEATHER ALMANAC - 8 JANUARY, 2013
[ Next Day → ]
[ °F ]   °C
Weather ElementAverageHighLow
Temperature23.8 °C27 °C (12:18 pm)20 °C (2:31 pm)
Dewpoint22.3 °C24 °C (10:04 am)19 °C (1:51 pm)
Humidity91.6 %100 % (3:34 am)78 % (8:22 am)
Barometer1009.1 hPa1011.5 hPa (11:44 am)1007.1 hPa (3:10 pm)
Wind Speed31.1 km/h50.1 km/h (3:28 pm)
Wind Gust62.9 km/h (3:27 pm)
Weather ElementAverage
Visibility11.4 km
Wind DirectionNE (48.1 °)

Weather ElementTotal
Precipitation21.84 mm
Cooling Degree Days5.2 (Base 18.3)
Growing Degree Days13.5 (Base 10)
Averaged from 255 records on 8 January, 2013
WEATHER CONDITIONS BREAKOUT
WIND DIRECTION BREAKOUT
WEATHER BY HOUR - 8 JANUARY, 2013
[ °F ]   °C
Local TimeTemperatureDewpointHumidityBarometerVisibilityWind DirectionWind SpeedGust SpeedPrecipitationEventsConditions
12:26 AM25 °C23 °C89 %1009.8 hPa11.3 kmNE (50°)31.5 km/h40.7 km/hRainLight Rain
12:36 AM24 °C23 °C94 %1010.2 hPa8 kmNE (40°)27.8 km/hRainLight Rain
12:42 AM24 °C23 °C94 %1009.8 hPa14.5 kmNE (40°)25.9 km/hRainLight Rain
12:43 AM24 °C23 °C94 %1009.8 hPa16.1 kmNNE (30°)25.9 km/hOvercast
12:44 AM24 °C23 °C94 %1009.8 hPa16.1 kmNNE (30°)25.9 km/hOvercast
12:48 AM24 °C23 °C94 %1009.8 hPa16.1 kmNE (40°)24.1 km/hMostly Cloudy
12:49 AM24 °C23 °C94 %1009.8 hPa16.1 kmNE (40°)24.1 km/hMostly Cloudy
12:55 AM24.4 °C23.4 °C94 %1009.8 hPa16.1 kmNE (40°)22.2 km/h0.51 mmMostly Cloudy
12:59 AM24 °C23 °C94 %1009.8 hPa16.1 kmNE (40°)25.9 km/hMostly Cloudy
1:01 AM23 °C22 °C94 %1009.8 hPa16.1 kmNE (40°)25.9 km/hMostly Cloudy
1:05 AM22 °C21 °C94 %1009.8 hPa16.1 kmNE (40°)27.8 km/hMostly Cloudy
1:08 AM23 °C22 °C94 %1009.8 hPa16.1 kmNE (40°)25.9 km/hMostly Cloudy
1:55 AM24.5 °C22.6 °C89 %1009.5 hPa16.1 kmNE (40°)31.5 km/hMostly Cloudy
1:57 AM25 °C23 °C89 %1009.5 hPa16.1 kmNE (40°)33.3 km/hMostly Cloudy
2:23 AM25 °C23 °C89 %1009.5 hPa16.1 kmNNE (30°)25.9 km/hOvercast
2:25 AM24 °C23 °C94 %1009.5 hPa16.1 kmNNE (30°)27.8 km/hLight Drizzle
2:32 AM24 °C23 °C94 %1009.5 hPa14.5 kmNNE (30°)31.5 km/h42.6 km/hLight Drizzle
2:33 AM24 °C23 °C94 %1009.5 hPa12.9 kmNNE (30°)35.2 km/h42.6 km/hLight Drizzle
2:38 AM24 °C23 °C94 %1009.1 hPa12.9 kmNE (40°)42.6 km/h51.8 km/hRainLight Rain
2:43 AM24 °C23 °C94 %1009.5 hPa16.1 kmNNE (30°)44.4 km/h51.8 km/hRainLight Rain
2:52 AM24 °C23 °C94 %1009.1 hPa14.5 kmNNE (30°)31.5 km/hRainLight Rain
2:55 AM23.8 °C22.7 °C94 %1009.1 hPa14.5 kmNNE (30°)27.8 km/h0.25 mmRainLight Rain
2:57 AM24 °C23 °C94 %1009.1 hPa16.1 kmNNE (20°)27.8 km/hRainLight Rain
3:06 AM24 °C23 °C94 %1009.1 hPa11.3 kmNNE (20°)33.3 km/h40.7 km/hLight Drizzle
3:07 AM24 °C23 °C94 %1009.1 hPa9.7 kmNNE (20°)29.6 km/h40.7 km/hOvercast
3:08 AM24 °C23 °C94 %1009.1 hPa9.7 kmNNE (20°)27.8 km/h40.7 km/hRainLight Rain
3:10 AM24 °C23 °C94 %1009.1 hPa8 kmNNE (30°)25.9 km/h40.7 km/hOvercast
3:25 AM23 °C22 °C94 %1009.1 hPa6.4 kmNE (50°)24.1 km/h38.9 km/hOvercast
3:26 AM23 °C22 °C94 %1009.1 hPa6.4 kmNE (40°)22.2 km/hLight Drizzle
3:32 AM23 °C22 °C94 %1009.1 hPa9.7 kmNNE (30°)25.9 km/hOvercast
3:34 AM23 °C23 °C100 %1009.1 hPa11.3 kmNNE (30°)20.4 km/hRainLight Rain
3:45 AM23 °C22 °C94 %1009.1 hPa14.5 kmNE (40°)18.5 km/hLight Drizzle
3:52 AM23 °C23 °C100 %1008.8 hPa16.1 kmNE (40°)14.8 km/hLight Drizzle
3:55 AM23.5 °C22.8 °C96 %1008.8 hPa16.1 kmNE (40°)13 km/h0.76 mmLight Drizzle
3:58 AM24 °C23 °C94 %1008.8 hPa16.1 kmNNE (30°)14.8 km/hOvercast
4:01 AM24 °C23 °C94 %1008.8 hPa16.1 kmNE (40°)18.5 km/hOvercast
4:06 AM24 °C23 °C94 %1009.1 hPa12.9 kmEast (100°)16.7 km/hRainLight Rain
4:08 AM23 °C23 °C100 %1009.1 hPa12.9 kmEast (90°)20.4 km/h33.3 km/hRainLight Rain
4:09 AM23 °C23 °C100 %1009.5 hPa8 kmEast (80°)27.8 km/h35.2 km/hRainLight Rain
4:11 AM23 °C22 °C94 %1009.1 hPa4 kmEast (80°)20.4 km/h35.2 km/hRainLight Rain
4:12 AM23 °C22 °C94 %1009.1 hPa3.2 kmEast (80°)18.5 km/h35.2 km/hRainHeavy Rain
4:13 AM23 °C22 °C94 %1009.1 hPa3.2 kmEast (80°)20.4 km/h35.2 km/hRainHeavy Rain
4:14 AM23 °C22 °C94 %1009.1 hPa3.2 kmEast (80°)18.5 km/h35.2 km/hRainHeavy Rain
4:15 AM23 °C22 °C94 %1009.1 hPa2.9 kmEast (80°)18.5 km/h35.2 km/hRainLight Rain
4:18 AM23 °C22 °C94 %1009.1 hPa2.4 kmEast (80°)20.4 km/h35.2 km/hRainLight Rain
4:20 AM23 °C22 °C94 %1009.1 hPa2.4 kmEast (90°)22.2 km/hRainHeavy Rain
4:24 AM23 °C22 °C94 %1009.1 hPa2.4 kmEast (80°)16.7 km/hRainRain
4:29 AM23 °C22 °C94 %1009.1 hPa2.4 kmEast (90°)18.5 km/hRainRain
4:34 AM23 °C22 °C94 %1009.1 hPa2.4 kmEast (80°)20.4 km/hRainHeavy Rain
4:35 AM23 °C22 °C94 %1009.1 hPa2.9 kmEast (80°)16.7 km/hRainRain
4:39 AM23 °C22 °C94 %1009.1 hPa3.2 kmEast (80°)14.8 km/hRainRain
4:41 AM23 °C22 °C94 %1009.1 hPa4 kmEast (80°)13 km/hRainRain
4:42 AM23 °C22 °C94 %1009.1 hPa4.8 kmENE (70°)13 km/hRainLight Rain
4:49 AM23 °C22 °C94 %1009.1 hPa8 kmENE (60°)11.1 km/hRainLight Rain
4:53 AM23 °C23 °C100 %1008.8 hPa12.9 kmENE (60°)14.8 km/hRainLight Rain
4:55 AM23.2 °C22.5 °C96 %1008.8 hPa12.9 kmENE (60°)11.1 km/h6.6 mmRainLight Rain
4:56 AM23 °C23 °C100 %1008.8 hPa12.9 kmENE (60°)13 km/hRainLight Rain
4:59 AM23 °C23 °C100 %1008.8 hPa12.9 kmNE (40°)18.5 km/hOvercast
5:00 AM23 °C23 °C100 %1009.1 hPa8 kmNE (40°)22.2 km/hOvercast
5:01 AM23 °C23 °C100 %1009.1 hPa4.8 kmNNE (30°)27.8 km/h42.6 km/hRainRain
5:02 AM23 °C23 °C100 %1009.1 hPa4 kmNNE (30°)31.5 km/h42.6 km/hRainRain
5:04 AM23 °C23 °C100 %1009.1 hPa4 kmNNE (30°)29.6 km/h42.6 km/hRainHeavy Rain
5:06 AM23 °C23 °C100 %1009.1 hPa4 kmNE (40°)31.5 km/h42.6 km/hRainLight Rain
5:09 AM22 °C22 °C100 %1009.1 hPa4 kmNNE (30°)35.2 km/h42.6 km/hRainLight Rain
5:10 AM22 °C21 °C94 %1009.1 hPa4.8 kmNE (40°)35.2 km/h42.6 km/hRainLight Rain
5:14 AM21 °C20 °C94 %1009.1 hPa14.5 kmNNE (30°)33.3 km/hRainLight Rain
5:16 AM21 °C21 °C100 %1009.1 hPa16.1 kmNNE (30°)33.3 km/hOvercast
5:17 AM22 °C21 °C94 %1009.1 hPa16.1 kmNNE (30°)31.5 km/hOvercast
5:22 AM21 °C20 °C94 %1009.1 hPa16.1 kmNNE (30°)33.3 km/hMostly Cloudy
5:25 AM22 °C21 °C94 %1009.1 hPa16.1 kmNNE (30°)31.5 km/hOvercast
5:34 AM22 °C21 °C94 %1009.1 hPa16.1 kmNE (40°)37 km/hOvercast
5:55 AM20.4 °C19.4 °C94 %1009.5 hPa16.1 kmNNE (30°)31.5 km/h4.32 mmOvercast
6:25 AM22 °C21 °C94 %1009.5 hPa16.1 kmNNE (30°)27.8 km/h44.4 km/hMostly Cloudy
6:55 AM21.3 °C19.8 °C91 %1009.8 hPa16.1 kmNNE (30°)31.5 km/hMostly Cloudy
6:56 AM22 °C21 °C94 %1009.8 hPa16.1 kmNNE (30°)31.5 km/hMostly Cloudy
6:58 AM24 °C22 °C89 %1009.8 hPa16.1 kmNE (40°)33.3 km/hMostly Cloudy
6:59 AM24 °C23 °C94 %1009.8 hPa16.1 kmNE (40°)35.2 km/hOvercast
7:02 AM25 °C23 °C89 %1009.8 hPa16.1 kmNE (40°)35.2 km/hMostly Cloudy
7:03 AM25 °C23 °C89 %1009.8 hPa16.1 kmNE (40°)33.3 km/hMostly Cloudy
7:09 AM25 °C23 °C89 %1009.8 hPa16.1 kmNNE (30°)31.5 km/hMostly Cloudy
7:22 AM25 °C23 °C89 %1009.8 hPa16.1 kmNNE (30°)25.9 km/hMostly Cloudy
7:29 AM25 °C23 °C89 %1009.8 hPa16.1 kmNNE (30°)25.9 km/hMostly Cloudy
7:32 AM25 °C23 °C89 %1009.8 hPa16.1 kmNE (40°)31.5 km/hMostly Cloudy
7:33 AM25 °C23 °C89 %1009.8 hPa16.1 kmNNE (30°)31.5 km/hMostly Cloudy
7:34 AM25 °C23 °C89 %1009.8 hPa16.1 kmNE (40°)27.8 km/hMostly Cloudy
7:36 AM25 °C23 °C89 %1009.8 hPa16.1 kmNE (40°)27.8 km/hMostly Cloudy
7:55 AM25.5 °C22.8 °C85 %1010.2 hPa16.1 kmNE (40°)31.5 km/hMostly Cloudy
7:59 AM25 °C23 °C89 %1010.2 hPa16.1 kmNNE (30°)35.2 km/hLight Drizzle
8:08 AM26 °C23 °C83 %1010.2 hPa16.1 kmNE (40°)37 km/hMostly Cloudy
8:22 AM26 °C22 °C78 %1010.5 hPa16.1 kmNE (40°)38.9 km/hMostly Cloudy
8:23 AM26 °C22 °C78 %1010.5 hPa16.1 kmNE (40°)38.9 km/hMostly Cloudy
8:30 AM26 °C22 °C78 %1010.5 hPa16.1 kmNE (40°)35.2 km/h50.1 km/hScattered Clouds
8:55 AM25.9 °C22.2 °C80 %1010.5 hPa16.1 kmNNE (30°)35.2 km/h46.3 km/h0 mmScattered Clouds
9:03 AM26 °C22 °C78 %1010.5 hPa16.1 kmNNE (30°)35.2 km/h48.1 km/hMostly Cloudy
9:19 AM25 °C22 °C83 %1010.8 hPa14.5 kmNE (40°)38.9 km/h46.3 km/hOvercast
9:24 AM25 °C23 °C89 %1010.8 hPa16.1 kmNE (40°)38.9 km/hOvercast
9:28 AM25 °C23 °C89 %1010.8 hPa16.1 kmNE (50°)44.4 km/h55.5 km/hOvercast
9:31 AM25 °C23 °C89 %1011.2 hPa6.4 kmNE (50°)42.6 km/h55.5 km/hRainLight Rain
9:34 AM25 °C23 °C89 %1011.2 hPa4 kmNE (50°)38.9 km/h55.5 km/hRainLight Rain
9:36 AM25 °C23 °C89 %1011.2 hPa3.2 kmNE (50°)40.7 km/h55.5 km/hLight Drizzle
9:39 AM24 °C23 °C94 %1011.2 hPa2.9 kmNE (50°)37 km/hRainLight Rain
9:40 AM24 °C23 °C94 %1011.2 hPa3.2 kmNE (50°)37 km/hLight Drizzle
9:42 AM24 °C23 °C94 %1010.8 hPa4 kmNE (50°)31.5 km/hLight Drizzle
9:43 AM24 °C23 °C94 %1010.8 hPa4.8 kmNE (40°)25.9 km/hLight Drizzle
9:45 AM24 °C23 °C94 %1010.8 hPa4.8 kmNE (40°)33.3 km/h38.9 km/hOvercast
9:55 AM21.9 °C20.7 °C93 %1010.8 hPa16.1 kmNE (40°)31.5 km/h0.25 mmOvercast
9:58 AM24 °C23 °C94 %1010.8 hPa16.1 kmNE (40°)29.6 km/hOvercast
9:59 AM25 °C23 °C89 %1010.8 hPa16.1 kmNE (40°)27.8 km/hOvercast
10:04 AM25 °C24 °C94 %1010.5 hPa16.1 kmNE (40°)27.8 km/hMostly Cloudy
10:08 AM25 °C24 °C94 %1010.5 hPa16.1 kmNE (40°)25.9 km/hMostly Cloudy
10:12 AM25 °C23 °C89 %1010.5 hPa8 kmNE (50°)35.2 km/h40.7 km/hMostly Cloudy
10:13 AM25 °C23 °C89 %1010.5 hPa6.4 kmENE (60°)35.2 km/h46.3 km/hRainHeavy Rain
10:14 AM25 °C23 °C89 %1010.5 hPa4 kmENE (60°)38.9 km/h46.3 km/hRainRain
10:15 AM24 °C22 °C89 %1010.5 hPa3.2 kmENE (60°)38.9 km/h46.3 km/hRainRain
10:16 AM23 °C22 °C94 %1010.5 hPa2.4 kmENE (60°)37 km/h46.3 km/hRainHeavy Rain
10:17 AM23 °C22 °C94 %1010.5 hPa1.9 kmENE (60°)35.2 km/h46.3 km/hRainHeavy Rain
10:18 AM23 °C22 °C94 %1010.5 hPa1.6 kmENE (60°)35.2 km/h46.3 km/hRainHeavy Rain
10:19 AM23 °C21 °C88 %1010.5 hPa1.6 kmENE (60°)37 km/h46.3 km/hRainHeavy Rain
10:20 AM23 °C22 °C94 %1010.5 hPa1.3 kmENE (70°)37 km/h46.3 km/hRainHeavy Rain
10:22 AM24 °C22 °C89 %1010.5 hPa1.3 kmENE (60°)31.5 km/h46.3 km/hRainLight Rain
10:24 AM24 °C23 °C94 %1010.5 hPa1.6 kmENE (60°)40.7 km/h46.3 km/hRainLight Rain
10:26 AM25 °C24 °C94 %1010.5 hPa1.9 kmENE (60°)42.6 km/h53.8 km/hRainLight Rain
10:27 AM25 °C24 °C94 %1010.5 hPa1.9 kmENE (60°)42.6 km/h53.8 km/hRainLight Rain
10:28 AM25 °C24 °C94 %1010.5 hPa2.4 kmNE (50°)40.7 km/h53.8 km/hRainLight Rain
10:30 AM25 °C24 °C94 %1010.5 hPa4 kmENE (60°)35.2 km/h53.8 km/hRainLight Rain
10:32 AM25 °C24 °C94 %1010.5 hPa4.8 kmNE (50°)35.2 km/h53.8 km/hMostly Cloudy
10:37 AM25 °C24 °C94 %1010.5 hPa8 kmNE (50°)29.6 km/h44.4 km/hMostly Cloudy
10:39 AM25 °C24 °C94 %1010.5 hPa14.5 kmNE (50°)25.9 km/h44.4 km/hMostly Cloudy
10:40 AM25 °C24 °C94 %1010.5 hPa16.1 kmNE (50°)29.6 km/h44.4 km/hMostly Cloudy
10:47 AM25 °C24 °C94 %1010.5 hPa16.1 kmNE (40°)35.2 km/h46.3 km/hMostly Cloudy
10:55 AM24.5 °C23.4 °C94 %1010.5 hPa16.1 kmNE (40°)33.3 km/h44.4 km/h3.3 mmMostly Cloudy
10:58 AM25 °C23 °C89 %1010.5 hPa16.1 kmNE (40°)35.2 km/h42.6 km/hMostly Cloudy
11:00 AM25 °C24 °C94 %1010.5 hPa16.1 kmNE (40°)31.5 km/h42.6 km/hMostly Cloudy
11:03 AM24 °C23 °C94 %1010.2 hPa16.1 kmNE (40°)33.3 km/h42.6 km/hMostly Cloudy
11:04 AM24 °C23 °C94 %1010.2 hPa16.1 kmNE (40°)31.5 km/hMostly Cloudy
11:06 AM24 °C23 °C94 %1010.2 hPa16.1 kmNE (40°)33.3 km/hMostly Cloudy
11:09 AM24 °C23 °C94 %1010.2 hPa16.1 kmNE (40°)37 km/hMostly Cloudy
11:16 AM24 °C23 °C94 %1010.2 hPa16.1 kmNE (50°)35.2 km/hOvercast
11:22 AM23 °C22 °C94 %1010.2 hPa16.1 kmNE (50°)33.3 km/hOvercast
11:39 AM25 °C23 °C89 %1009.8 hPa16.1 kmNE (40°)33.3 km/hOvercast
11:42 AM26 °C24 °C89 %1009.8 hPa16.1 kmNE (40°)35.2 km/hMostly Cloudy
11:44 AM25 °C23 °C89 %1011.5 hPa16.1 kmNE (40°)33.3 km/hMostly Cloudy
11:55 AM24.2 °C21.8 °C86 %1009.5 hPa16.1 kmNNE (30°)31.5 km/hOvercast
11:57 AM24 °C22 °C89 %1009.8 hPa16.1 kmNNE (30°)35.2 km/hOvercast
12:07 PM26 °C23 °C83 %1009.5 hPa16.1 kmNE (50°)33.3 km/hMostly Cloudy
12:18 PM27 °C23 °C79 %1009.5 hPa16.1 kmNE (40°)31.5 km/hMostly Cloudy
12:19 PM27 °C23 °C79 %1009.5 hPa16.1 kmNE (40°)31.5 km/hMostly Cloudy
12:22 PM27 °C23 °C79 %1009.5 hPa16.1 kmNE (40°)37 km/h46.3 km/hMostly Cloudy
12:30 PM27 °C23 °C79 %1009.1 hPa16.1 kmNE (50°)38.9 km/h46.3 km/hMostly Cloudy
12:46 PM27 °C23 °C79 %1008.8 hPa16.1 kmNE (40°)33.3 km/hMostly Cloudy
12:49 PM27 °C24 °C84 %1008.8 hPa16.1 kmNE (40°)33.3 km/hMostly Cloudy
12:55 PM26.6 °C23.3 °C82 %1008.5 hPa16.1 kmNE (40°)33.3 km/hMostly Cloudy
12:59 PM27 °C23 °C79 %1008.5 hPa16.1 kmNE (40°)33.3 km/hMostly Cloudy
1:11 PM26 °C22 °C78 %1008.5 hPa14.5 kmNE (40°)44.4 km/h53.8 km/hRainLight Rain
1:23 PM24 °C21 °C83 %1008.1 hPa14.5 kmNE (40°)31.5 km/hScattered Clouds
1:28 PM25 °C22 °C83 %1008.1 hPa16.1 kmNNE (30°)29.6 km/hMostly Cloudy
1:35 PM26 °C23 °C83 %1008.1 hPa16.1 kmNNE (30°)27.8 km/hMostly Cloudy
1:51 PM23 °C19 °C78 %1007.8 hPa16.1 kmNE (40°)29.6 km/hMostly Cloudy
1:55 PM23.3 °C19.9 °C81 %1007.8 hPa16.1 kmNE (40°)31.5 km/h0 mmMostly Cloudy
1:57 PM25 °C22 °C83 %1007.8 hPa16.1 kmNE (40°)31.5 km/hMostly Cloudy
2:12 PM27 °C23 °C79 %1007.5 hPa14.5 kmNE (50°)42.6 km/h51.8 km/hLight Drizzle
2:16 PM26 °C23 °C83 %1007.5 hPa4.8 kmENE (60°)40.7 km/h51.8 km/hRainLight Rain
2:18 PM26 °C23 °C83 %1007.5 hPa4 kmENE (60°)40.7 km/h51.8 km/hRainLight Rain
2:19 PM25 °C23 °C89 %1007.5 hPa3.2 kmENE (60°)38.9 km/h51.8 km/hRainLight Rain
2:21 PM25 °C23 °C89 %1007.5 hPa2.9 kmENE (60°)37 km/h51.8 km/hRainLight Rain
2:31 PM20 °C19 °C94 %1007.8 hPa3.2 kmENE (60°)33.3 km/h44.4 km/hRainLight Rain
2:32 PM21 °C19 °C88 %1007.5 hPa4 kmENE (60°)37 km/h44.4 km/hRainLight Rain
2:33 PM21 °C19 °C88 %1007.5 hPa4.8 kmENE (60°)35.2 km/h44.4 km/hLight Drizzle
2:36 PM21 °C20 °C94 %1007.5 hPa9.7 kmNE (50°)29.6 km/h44.4 km/hLight Drizzle
2:37 PM21 °C20 °C94 %1007.5 hPa12.9 kmNE (50°)31.5 km/h44.4 km/hOvercast
2:53 PM25 °C24 °C94 %1007.5 hPa16.1 kmNE (50°)33.3 km/hOvercast
2:55 PM25 °C23.7 °C92 %1007.5 hPa16.1 kmNE (40°)31.5 km/h0.76 mmRainLight Rain
2:56 PM25 °C24 °C94 %1007.5 hPa16.1 kmNE (40°)31.5 km/hRainLight Rain
3:10 PM26 °C24 °C89 %1007.1 hPa16.1 kmNE (40°)31.5 km/h42.6 km/hOvercast
3:12 PM26 °C24 °C89 %1007.5 hPa16.1 kmNE (40°)31.5 km/h42.6 km/hOvercast
3:25 PM26 °C24 °C89 %1007.5 hPa16.1 kmNE (40°)33.3 km/hOvercast
3:27 PM26 °C24 °C89 %1007.5 hPa4 kmENE (70°)48.1 km/h62.9 km/hOvercast
3:28 PM26 °C23 °C83 %1007.5 hPa2.4 kmENE (60°)50.1 km/h62.9 km/hRainHeavy Rain
3:29 PM26 °C23 °C83 %1007.5 hPa1.9 kmNE (50°)44.4 km/h62.9 km/hRainHeavy Rain
3:30 PM25 °C23 °C89 %1007.5 hPa1.6 kmNE (50°)38.9 km/h62.9 km/hRainHeavy Rain
3:32 PM25 °C23 °C89 %1007.5 hPa1.3 kmENE (60°)29.6 km/h62.9 km/hRainHeavy Rain
3:37 PM24 °C23 °C94 %1007.5 hPa1.6 kmNE (50°)25.9 km/hRainLight Rain
3:38 PM24 °C23 °C94 %1007.5 hPa2.4 kmNE (50°)25.9 km/hRainLight Rain
3:39 PM24 °C23 °C94 %1007.5 hPa3.2 kmNE (50°)27.8 km/hRainLight Rain
3:40 PM25 °C23 °C89 %1007.5 hPa4 kmNE (50°)25.9 km/hRainLight Rain
3:41 PM25 °C23 °C89 %1007.5 hPa6.4 kmNE (50°)25.9 km/hRainLight Rain
3:44 PM25 °C24 °C94 %1007.5 hPa14.5 kmNE (50°)33.3 km/h46.3 km/hOvercast
3:46 PM25 °C24 °C94 %1007.5 hPa14.5 kmENE (70°)44.4 km/h57.5 km/hRainLight Rain
3:47 PM25 °C23 °C89 %1007.5 hPa12.9 kmENE (70°)37 km/h57.5 km/hLight Drizzle
3:55 PM24.2 °C23 °C93 %1007.8 hPa4 kmENE (70°)35.2 km/h57.5 km/h3.3 mmRainLight Rain
3:57 PM24 °C23 °C94 %1007.8 hPa3.2 kmENE (70°)35.2 km/h55.5 km/hRainLight Rain
3:59 PM24 °C22 °C89 %1007.8 hPa2.9 kmENE (70°)35.2 km/h46.3 km/hRainLight Rain
4:08 PM20 °C19 °C94 %1007.8 hPa2.9 kmENE (60°)24.1 km/hRainLight Rain
4:09 PM21 °C20 °C94 %1007.8 hPa2.9 kmENE (60°)20.4 km/hRainLight Rain
4:10 PM22 °C21 °C94 %1007.8 hPa3.2 kmENE (60°)24.1 km/hRainLight Rain
4:11 PM22 °C21 °C94 %1007.8 hPa4 kmENE (60°)25.9 km/hRainLight Rain
4:12 PM23 °C22 °C94 %1007.8 hPa4.8 kmENE (60°)22.2 km/hRainLight Rain
4:18 PM24 °C23 °C94 %1007.8 hPa14.5 kmNE (50°)22.2 km/hOvercast
4:21 PM24 °C23 °C94 %1007.8 hPa16.1 kmNE (50°)22.2 km/hOvercast
4:55 PM21.8 °C20.1 °C90 %1008.1 hPa16.1 kmNE (50°)27.8 km/h38.9 km/h0.76 mmScattered Clouds
5:00 PM22 °C20 °C88 %1008.1 hPa16.1 kmNE (40°)31.5 km/hMostly Cloudy
5:07 PM24 °C22 °C89 %1008.1 hPa16.1 kmENE (60°)37 km/h48.1 km/hMostly Cloudy
5:08 PM25 °C23 °C89 %1008.1 hPa16.1 kmENE (60°)38.9 km/h48.1 km/hMostly Cloudy
5:12 PM25 °C23 °C89 %1008.5 hPa6.4 kmENE (60°)40.7 km/h51.8 km/hMostly Cloudy
5:13 PM24 °C23 °C94 %1008.5 hPa4.8 kmENE (60°)40.7 km/h51.8 km/hRainRain
5:14 PM24 °C23 °C94 %1008.5 hPa4 kmENE (60°)38.9 km/h51.8 km/hRainRain
5:15 PM24 °C22 °C89 %1008.5 hPa3.2 kmENE (60°)38.9 km/h51.8 km/hRainLight Rain
5:17 PM24 °C22 °C89 %1008.5 hPa3.2 kmNE (50°)37 km/h51.8 km/hRainLight Rain
5:18 PM24 °C22 °C89 %1008.5 hPa2.9 kmENE (60°)37 km/h51.8 km/hRainLight Rain
5:19 PM23 °C22 °C94 %1008.5 hPa2.9 kmNE (50°)35.2 km/h51.8 km/hRainLight Rain
5:22 PM24 °C22 °C89 %1008.5 hPa3.2 kmNE (50°)27.8 km/h51.8 km/hRainLight Rain
5:23 PM24 °C23 °C94 %1008.5 hPa4 kmNE (50°)27.8 km/hRainLight Rain
5:24 PM24 °C23 °C94 %1008.5 hPa4.8 kmNE (50°)29.6 km/hLight Drizzle
5:27 PM23 °C22 °C94 %1008.5 hPa6.4 kmNE (50°)33.3 km/hLight Drizzle
5:28 PM22 °C21 °C94 %1008.5 hPa8 kmNE (50°)31.5 km/hLight Drizzle
5:36 PM24 °C23 °C94 %1008.5 hPa14.5 kmNE (50°)27.8 km/hOvercast
5:46 PM23 °C22 °C94 %1008.5 hPa16.1 kmNE (50°)25.9 km/hOvercast
5:48 PM22 °C21 °C94 %1008.5 hPa16.1 kmNE (50°)25.9 km/hOvercast
5:55 PM24.4 °C23.2 °C93 %1008.5 hPa16.1 kmNE (50°)31.5 km/h0.76 mmOvercast
5:58 PM25 °C24 °C94 %1008.5 hPa16.1 kmNE (50°)29.6 km/hOvercast
6:40 PM25 °C24 °C94 %1008.8 hPa16.1 kmNE (50°)35.2 km/hOvercast
6:49 PM25 °C24 °C94 %1008.8 hPa16.1 kmNE (50°)33.3 km/hOvercast
6:55 PM25.3 °C23.5 °C90 %1009.1 hPa16.1 kmNE (50°)37 km/h48.1 km/hOvercast
6:58 PM25 °C23 °C89 %1008.8 hPa16.1 kmNE (50°)37 km/h48.1 km/hOvercast
7:11 PM25 °C23 °C89 %1008.8 hPa12.9 kmENE (60°)37 km/h51.8 km/hMostly Cloudy
7:40 PM21 °C20 °C94 %1009.5 hPa16.1 kmNE (50°)27.8 km/hMostly Cloudy
7:42 PM21 °C20 °C94 %1009.5 hPa16.1 kmNE (50°)29.6 km/hMostly Cloudy
7:43 PM21 °C20 °C94 %1009.5 hPa16.1 kmNE (50°)25.9 km/hMostly Cloudy
7:44 PM21 °C20 °C94 %1009.5 hPa16.1 kmNE (50°)27.8 km/hMostly Cloudy
7:45 PM21 °C20 °C94 %1009.5 hPa16.1 kmNE (50°)31.5 km/h38.9 km/hMostly Cloudy
7:55 PM24.1 °C22.9 °C93 %1009.5 hPa16.1 kmNE (40°)31.5 km/hOvercast
8:05 PM25 °C23 °C89 %1009.5 hPa6.4 kmENE (60°)27.8 km/h44.4 km/hRainLight Rain
8:10 PM25 °C23 °C89 %1009.1 hPa8 kmENE (60°)33.3 km/hRainLight Rain
8:14 PM25 °C24 °C94 %1009.1 hPa12.9 kmENE (60°)29.6 km/hRainLight Rain
8:15 PM25 °C24 °C94 %1009.1 hPa14.5 kmENE (60°)29.6 km/hOvercast
8:29 PM25 °C24 °C94 %1009.1 hPa16.1 kmNE (50°)33.3 km/h40.7 km/hOvercast
8:55 PM25.1 °C23.8 °C92 %1009.5 hPa16.1 kmNE (40°)37 km/h0.25 mmMostly Cloudy
8:58 PM25 °C24 °C94 %1009.5 hPa16.1 kmNE (40°)37 km/hMostly Cloudy
9:08 PM25 °C23 °C89 %1009.5 hPa16.1 kmNE (50°)33.3 km/hMostly Cloudy
9:12 PM21 °C20 °C94 %1009.5 hPa16.1 kmNE (50°)31.5 km/hMostly Cloudy
9:14 PM21 °C20 °C94 %1009.5 hPa16.1 kmNE (50°)33.3 km/h42.6 km/hMostly Cloudy
9:16 PM21 °C20 °C94 %1009.8 hPa16.1 kmNE (50°)33.3 km/h44.4 km/hMostly Cloudy
9:22 PM21 °C20 °C94 %1009.8 hPa16.1 kmENE (60°)37 km/h44.4 km/hMostly Cloudy
9:27 PM21 °C20 °C94 %1009.8 hPa16.1 kmENE (60°)31.5 km/h42.6 km/hMostly Cloudy
9:55 PM20.8 °C19.7 °C93 %1009.8 hPa16.1 kmNE (50°)29.6 km/hMostly Cloudy
10:01 PM21 °C20 °C94 %1009.5 hPa16.1 kmNE (50°)29.6 km/hMostly Cloudy
10:20 PM23 °C22 °C94 %1009.5 hPa16.1 kmNE (50°)37 km/h46.3 km/hMostly Cloudy
10:27 PM21 °C20 °C94 %1009.5 hPa16.1 kmNE (50°)35.2 km/h46.3 km/hMostly Cloudy
10:42 PM21 °C20 °C94 %1009.5 hPa16.1 kmNE (50°)33.3 km/hMostly Cloudy
10:48 PM21 °C20 °C94 %1009.5 hPa16.1 kmNE (50°)35.2 km/hMostly Cloudy
10:55 PM20.8 °C19.7 °C93 %1009.5 hPa16.1 kmNE (50°)27.8 km/hMostly Cloudy
10:58 PM21 °C20 °C94 %1009.5 hPa16.1 kmNE (50°)33.3 km/hMostly Cloudy
11:04 PM21 °C20 °C94 %1009.5 hPa16.1 kmNE (50°)31.5 km/hMostly Cloudy
11:27 PM21 °C20 °C94 %1009.5 hPa16.1 kmNE (50°)35.2 km/hOvercast
11:55 PM21.3 °C19.8 °C91 %1009.1 hPa16.1 kmNE (50°)35.2 km/h46.3 km/hOvercast
Hourly data recorded from PGUA, located 0 kilometers away from Achang Bay, Guam







STORIES FROM OUR PARTNERS